Location: M?digepalle
(16.1753°N, 80.3496°E)
Time: 09:10:38
(UTC+00:00)

H-2A R/B - Pass Details

Date: 29 October 2020
Orbit: 577 x 656 km, 98.5° (Epoch: 27 November)

Event Time Altitude Azimuth Distance (km) Brightness Sun altitude
Rises 22:56:45 0° 166° (SSE) 2,966 5.8 -24.0°
Reaches altitude 10° 22:58:58 10° 166° (SSE) 2,053 5.0 -23.5°
Maximum altitude 23:03:27 86° 80° (E) 652 2.1 -22.4°
Enters shadow 23:06:11 23° 350° (N) 1,347 3.6 -21.8°
